Location: Shepherdstown, WV
(39.4326°N, 77.8042°W)
Time: 05:24:23
(UTC-04:00)

Vanguard 1 - Pass Details

Date: 10 August 2021
Orbit: 652 x 3831 km, 34.3° (Epoch: 24 September)

Event Time Altitude Azimuth Distance (km) Brightness Sun altitude
Rises 07:19:43 0° 214° (SW) 4,131 12.8 10.3°
Reaches altitude 10° 07:24:08 10° 194° (SSW) 2,682 12.1 11.1°
Maximum altitude 07:27:34 16° 159° (SSE) 2,008 11.9 11.8°
Drops below altitude 10° 07:30:27 10° 121° (ESE) 2,179 12.8 12.3°
Sets 07:33:27 0° 97° (E) 2,979 14.1 12.9°
